Regional Weather Roundup
Issued by NWS

Home | Current Version | Previous Version | Text Only | Print | Product List | Glossary On
Versions: 1 2 3 4 5 6 7 8 9 10 11 12 13 14 15 16 17 18 19 20 21 22 23 24 25 26 27 28 29 30 31 32 33 34 35 36 37 38 39 40 41 42 43 44 45 46 47 48 49 50
025
ASUS46 KSEW 042210
RWRWA

WASHINGTON REGIONAL WEATHER ROUNDUP
NATIONAL WEATHER SERVICE SEATTLE WA
200 PM PST SUN DEC 04 2016

NOTE:"FAIR" INDICATES FEW OR NO CLOUDS BELOW 12,000 FEET WITH NO
SIGNIFICANT WEATHER AND/OR OBSTRUCTIONS TO VISIBILITY.

WAZ507-509-555>559-042300-
SEATTLE, TACOMA, EVERETT, AND VICINITY

CITY           SKY/WX    TMP DP  RH WIND       PRES   REMARKS
EVERETT        FLURRIES  38  31  76 N8        30.05R
BOEING FIELD   MOSUNNY   44  38  79 SE7       30.07S
RENTON         SUNNY     44  37  76 S7        30.07S
SEATAC AIRPORT MOSUNNY   43  35  73 S7        30.06S
JBLM-MCCHORD   MOSUNNY   45  34  64 SW8       30.06S
PUYALLUP       PTSUNNY   43  34  70 CALM      30.06S
BREMERTON      MOSUNNY   43  36  75 S6        30.09R
JBLM-FT LEWIS  SUNNY     45  35  67 SW6       30.06S
TACOMA NARROWS MOSUNNY   45  34  65 CALM      30.06S
$$

WAZ001-503-506-510-514-515-042300-
NORTH INTERIOR

CITY           SKY/WX    TMP DP  RH WIND       PRES   REMARKS
BELLINGHAM     SUNNY     43  32  65 W9G20     30.03R
FRIDAY HARBOR  SUNNY     46  25  43 W6        30.06S
EASTSOUND      MOSUNNY   43  32  65 NW8       30.04S
PORT ANGELES   MOSUNNY   45  30  55 W15G22    30.07S
EDIZ HOOK      FAIR      46  31  57 W17G29    30.07S
PORT TOWNSEND  FAIR      46  27  46 W12G22    30.06S
NAS WHIDBEY    PTSUNNY   47  23  38 W18       30.10R
ARLINGTON      CLOUDY    45  25  45 NW13G18   30.07R
BURLINGTON     PTSUNNY   43  30  61 W9G17     30.06R
$$

WAZ020-022-039-040-504-511-512-042300-
SOUTHWEST INTERIOR

CITY           SKY/WX    TMP DP  RH WIND       PRES   REMARKS
SHELTON        SUNNY     48  28  46 W8        30.04R
OLYMPIA        SUNNY     46  28  49 W8        30.07R
CHEHALIS       NOT AVBL
KELSO          MOSUNNY   47  33  58 NW7       30.12R
VANCOUVER      LGT RAIN  47  36  65 W8        30.12F
SCAPPOOSE, OR  PTSUNNY   46  38  73 NW5       30.12R
PORTLAND, OR   LGT RAIN  46  36  68 W6        30.13S
$$

WAZ021-516-517-042300-
WASHINGTON COAST

CITY           SKY/WX    TMP DP  RH WIND       PRES   REMARKS
FORKS          MOSUNNY   44  33  65 VRB6G16   30.10S
HOQUIAM        LGT RAIN  45  34  65 W18G26    30.11R
ASTORIA, OR    CLOUDY    48  34  58 NW22G39   30.13R
$$

WAZ019-023-024-040-567>569-042300-
CASCADE MOUNTAINS AND COLUMBIA GORGE

CITY           SKY/WX    TMP DP  RH WIND       PRES   REMARKS
STAMPEDE PASS  LGT SNOW  24  24 100 MISG      29.88R VSB 1
TROUTDALE, OR  PTSUNNY   47  34  60 W3        30.13S
THE DALLES, OR MOSUNNY   47  28  47 W14G31    30.05R
$$

WAZ026-027-041>044-520-521-042300-
EAST SLOPES

CITY           SKY/WX    TMP DP  RH WIND       PRES   REMARKS
OMAK           MOSUNNY   37  26  64 N12       29.85R
WENATCHEE      SUNNY     43  17  35 NW21G30   29.87R
ELLENSBURG     SUNNY     40  22  48 NW24G33   29.91R
YAKIMA         MOSUNNY   48  22  35 W15       29.92R
$$

WAZ028-034-035-042300-
COLUMBIA BASIN

CITY           SKY/WX    TMP DP  RH WIND       PRES   REMARKS
EPHRATA        SUNNY     44  12  27 NW22G33   29.84R
MOSES LAKE     SUNNY     45  15  30 W23G30    29.85R
PASCO          SUNNY     50  27  40 NW17      29.92S
HERMISTON, OR  MOSUNNY   47  30  51 W23G37    29.94R
$$

WAZ036>038-042300-
NORTHEAST WASHINGTON

CITY           SKY/WX    TMP DP  RH WIND       PRES   REMARKS
SPOKANE GEIGER PTSUNNY   37  25  61 NW12      29.74R
SPOKANE FELTS  LGT SNOW  36  28  73 N9        29.76R
FAIRCHILD AFB  CLOUDY    38  27  63 W14G20    29.72S
COEURDALENE,ID CLOUDY    37  30  75 W16       29.71F
DEER PARK      PTSUNNY   37  23  56 W9        29.73R
$$

WAZ029>033-042300-
SOUTHEAST WASHINGTON

CITY           SKY/WX    TMP DP  RH WIND       PRES   REMARKS
PULLMAN        CLOUDY    38  32  79 W21G28    29.79S
LEWISTON, ID   PTSUNNY   44  30  57 W18G26    29.81F
WALLA WALLA    PTSUNNY   44  35  70 SW20G26   29.88F
PENDLETON, OR  PTSUNNY   42  29  59 W30G41    29.90R
$$




USA.gov is the U.S. government's official web portal to all federal, state and local government web resources and services.